Meteo Giornale » Osservazioni meteo Gran Bretagna » Newcastle

ore: 23:50 - Osservazioni Meteo Newcastle
Lat. 55° 2' N Lon. 1° 42' W Alt. 81 metri s.l.m.

nuvoloso Europe/London

-2 °C

Nuvoloso

Temp. 24 Ore

-5 °C

2 °C

Nord

1.8 Km/h

Dew point -3 °C

Umidità 92 %

Visibilità  10 Km

Il sole sorge alle ore 08:09

Il sole tramonta alle ore 16:27

Data e Ora Cielo e Fenomeni T °C DP °C Um. % Pres. hPa Vis. km Vento km/h
Ieri h: 23:50 nuvoloso Nuvoloso -2 -3 92 1005 10 N 1.8
Ieri h: 22:50 nuvoloso Nuvoloso -2 -3 92 1005 10 N 3.7
Ieri h: 22:20 nuvoloso Nuvoloso -2 -3 92 1005 10 N 1.8
Ieri h: 21:50 nuvoloso Nuvoloso -2 -3 92 1005 10 S/SO 7.4
Ieri h: 21:20 sereno Sereno -3 -3 100 1005 10 N 3.7
Ieri h: 20:50 sereno Sereno -3 -3 100 1005 10 N 3.7
Ieri h: 20:20 sereno Sereno -3 -4 92 1005 10 N 5.5
Ieri h: 19:50 sereno Sereno -4 -5 92 1005 10 N 5.5
Ieri h: 19:20 sereno Sereno -3 -4 92 1005 10 N 5.5
Ieri h: 18:50 sereno Sereno -2 -3 92 1004 10 N 1.8
Ieri h: 18:20 sereno Sereno -3 -4 92 1004 10 N 5.5
Ieri h: 17:50 sereno Sereno -2 -3 92 1004 10 N 3.7
Ieri h: 16:50 sereno Sereno -2 -3 92 1004 10 O/SO 11.1
Ieri h: 16:20 sereno Sereno -0 -2 86 1004 10 O/SO 9.3
Ieri h: 15:50 sereno Sereno -0 -3 80 1004 10 O 14.8
Ieri h: 14:50 sereno Sereno 2 -3 69 1003 10 O/SO 9.3
Ieri h: 14:20 sereno Sereno 2 -2 74 1003 10 O 11.1
Ieri h: 13:50 sereno Sereno 2 -2 74 1003 10 O 11.1
Ieri h: 13:20 sereno Sereno 2 -2 74 1003 10 O 11.1
Ieri h: 12:50 poco_nuvoloso Poco Nuvoloso 2 -2 74 1003 10 O 11.1
Ieri h: 12:20 poco_nuvoloso Poco Nuvoloso 1 -2 80 1003 10 O 13
Ieri h: 11:50 poco_nuvoloso Poco Nuvoloso 0 -3 80 1002 10 O 13
Ieri h: 11:20 poco_nuvoloso Poco Nuvoloso -0 -3 80 1002 10 O 14.8
Ieri h: 10:50 poco_nuvoloso Poco Nuvoloso -1 -3 86 1002 10 O 11.1
Ieri h: 10:20 poco_nuvoloso Poco Nuvoloso -2 -3 92 1002 10 O 13
Ieri h: 09:50 sereno Sereno -2 -4 86 1002 10 O/SO 9.3
Ieri h: 09:20 sereno Sereno -3 -4 92 1001 10 O/SO 9.3
Ieri h: 08:50 sereno Sereno -5 -6 92 1001 10 O/SO 7.4
Ieri h: 08:20 poco_nuvoloso Poco Nuvoloso -5 -6 92 1001 10 O/SO 7.4
Ieri h: 07:50 poco_nuvoloso Poco Nuvoloso -5 -5 100 1000 10 O/SO 7.4
Ieri h: 07:20 poco_nuvoloso Poco Nuvoloso -5 -6 92 1000 10 O/SO 9.3
Ieri h: 06:50 poco_nuvoloso Poco Nuvoloso -4 -5 92 999 10 O/SO 9.3
Ieri h: 06:20 poco_nuvoloso Poco Nuvoloso -4 -5 92 999 10 O 11.1
Ieri h: 05:50 poco_nuvoloso Poco Nuvoloso -5 -6 92 999 10 O 9.3
Ieri h: 05:20 poco_nuvoloso Poco Nuvoloso -5 -6 92 999 10 O/SO 9.3
Ieri h: 04:50 poco_nuvoloso Poco Nuvoloso -5 -5 100 998 10 O/SO 7.4
Ieri h: 04:20 poco_nuvoloso Poco Nuvoloso -5 -5 100 998 8 O 11.1
Ieri h: 03:50 poco_nuvoloso Poco Nuvoloso -5 -6 92 998 8 O 7.4
Ieri h: 02:50 poco_nuvoloso Poco Nuvoloso -4 -4 100 997 8 O/SO 11.1
Ieri h: 02:20 poco_nuvoloso Poco Nuvoloso -5 -5 100 997 8 O/SO 7.4
Ieri h: 00:50 poco_nuvoloso Poco Nuvoloso -3 -3 100 996 8 N 5.5
Ieri h: 00:20 poco_nuvoloso Poco Nuvoloso -3 -3 100 996 6 N 5.5
Ieri h: 23:50 nuvoloso Nuvoloso -4 -4 100 996 7 O 11.1